Hourly Data Report for February 18, 2017

All times are specified in Local Standard Time (LST). Add 1 hour to adjust for Daylight Saving Time where and when it is observed.

TORONTO INTL A
ONTARIO

43°40'36.000" N
79°37'50.000" W
173.40 m
6158731
71624
YYZ

Download Data

Hourly Data (February 2017)
Hourly Data Report for February 18, 2017
TIME Temp Definition
°C
Dew Point Definition
°C
Rel Hum Definition
%
Wind Dir Definition
10's deg

Wind Spd Definition
km/h
Visibility Definition
km
Stn Press Definition
kPa
Hmdx Definition


Wind Chill Definition


Weather Definition


00:00 -0.3 -3.3 80 9 4 24.1 98.57   -2 LegendNANA
01:00 -1.1 -3.5 84 36 1 24.1 98.53   -1 Mostly Cloudy
02:00 -1.6 -4.0 84 36 1 24.1 98.44   -2 LegendNANA
03:00 -2.4 -4.6 85 25 4 24.1 98.37   -4 LegendNANA
04:00 -2.4 -4.4 86 31 3 24.1 98.28   -4 Mainly Clear
05:00 -3.2 -4.8 89 28 4 24.1 98.22   -5 LegendNANA
06:00 -1.5 -3.2 88 12 4 24.1 98.17   -3 LegendNANA
07:00 -0.7 -3.6 81 16 8 19.3 98.12   -4 Mainly Clear
08:00 0.2 -2.7 81 15 11 24.1 98.09     LegendNANA
09:00 3.6 -0.4 75 21 14 24.1 98.09     LegendNANA
10:00 6.3 0.6 67 26 13 24.1 98.04     Mainly Clear
11:00 9.7 1.6 57 23 20 24.1 98.03     LegendNANA
12:00 10.3 2.0 56 25 21 24.1 98.01     LegendNANA
13:00 11.5 2.3 53 27 27 24.1 97.98     Mainly Clear
14:00 11.4 2.5 54 27 39 24.1 97.96     LegendNANA
15:00 11.4 2.5 54 27 44 24.1 97.94     LegendNANA
16:00 11.6 2.9 55 26 43 24.1 98.02     Clear
17:00 11.0 2.9 57 26 36 24.1 98.06     LegendNANA
18:00 9.5 2.4 61 27 24 24.1 98.18     LegendNANA
19:00 7.8 2.1 67 26 22 24.1 98.28     Clear
20:00 6.8 1.9 71 27 18 24.1 98.30     LegendNANA
21:00 6.0 1.7 74 27 16 24.1 98.32     LegendNANA
22:00 6.6 1.7 71 31 16 24.1 98.39     Clear
23:00 7.0 1.9 70 29 13 24.1 98.46     LegendNANA

Notes on Data Quality.

Legend

  • E = Estimated
  • M = Missing
  • NA = Not Available
Date modified: